User: anonymous   Login
Location: Champs
(48.8539°N, 2.6040°E)
Time: 18:44:47
(UTC+00:00)
Language:

FENGYUN 1C DEB - Orbit

View from above orbital plane
View from above orbital plane
View from above satellite
View from above satellite

Ground track
Ground track

The orbit data is extracted from the following two-line orbital elements,

1 31955U 99025CNG 22221.51224631  .00002094  00000-0  69185-3 0  9998
2 31955  99.2682 320.3177 0065457 200.5773 222.4960 14.37984189788748
Epoch (UTC): 09 August 2022 12:17:38
Eccentricity: 0.0065457
inclination: 99.2682°
perigee height: 718 km
apogee height: 812 km
right ascension of ascending node: 320.3177°
argument of perigee: 200.5773°
revolutions per day: 14.37984189
mean anomaly at epoch: 222.4960°
orbit number at epoch: 78874

The dashed part of the orbit path shows where the satellite is in the earth's shadow,  

DLR